Home   Weather   Bolzano   Past weeks

Flag for Italy Past Weather in Bolzano, Italy — Yesterday and Last 2 Weeks

Now
50 °F

Passing clouds.


Feels Like: 49 °F
Forecast: 37 / 47 °F
Wind: 3 mph from North

Location: Bolzano

Current Time: Feb 23, 2017 at 9:51:13 pm

Latest Report: Feb 23, 2017 at 8:50 pm


Visibility: 4 mi

Pressure: 29.83 "Hg

Humidity: 62%

Dew Point: 37 °F

Location of BolzanoLocation

Past Weather in Bolzano — Graph

°F

Bolzano Temperature Yesterday

Maximum temperature yesterday: 55 °F (at 2:50 pm)
Minimum temperature yesterday: 32 °F (at 7:50 am)
Average temperature yesterday: 45 °F

High & Low Weather Summary for the Past Weeks

 TemperatureHumidityPressure
High61 °F (Feb 16, 2:50 pm)100% (Feb 9, 8:50 am)30.66 "Hg (Feb 9, 8:50 am)
Low27 °F (Feb 20, 6:50 am)25% (Feb 18, 1:50 pm)29.83 "Hg (Feb 23, 4:50 pm)
Average44 °F65%30.23 "Hg
* Reported Feb 8 7:50 pm — Feb 23 7:50 pm, Bolzano, Weather by CustomWeather, © 2017

Note: Actual official high and low records may vary slightly from our data, if they occured in-between our weather recording intervals... More about our weather records

Advertising

Bolzano Weather History for the Previous 24 Hours

Scroll right to see more
 ConditionsComfort  
Time TempWeatherWind HumidityBarometerVisibility
7:50 pm
Thu, Feb 23
50 °FPassing clouds.6 mph67%29.83 "Hg4 mi
6:50 pm50 °FPassing clouds.7 mph71%29.86 "Hg4 mi
5:50 pm52 °FPartly sunny.7 mph62%29.83 "Hg4 mi
4:50 pm54 °FScattered clouds.8 mph58%29.83 "Hg4 mi
3:50 pm54 °FScattered clouds.8 mph58%29.86 "Hg4 mi
2:50 pm54 °FScattered clouds.9 mph54%29.86 "Hg4 mi
1:50 pm55 °FScattered clouds.5 mph51%29.89 "Hg4 mi
12:50 pm54 °FScattered clouds.3 mph54%29.95 "Hg4 mi
11:50 am50 °FFog.6 mph67%29.98 "Hg3 mi
10:50 am48 °FFog.1 mph71%30.01 "Hg3 mi
9:50 am45 °FFog.1 mph81%30.01 "Hg3 mi
8:50 am43 °FFog.1 mph87%30.01 "Hg2 mi
7:50 am41 °FFog.1 mph87%30.01 "Hg2 mi
6:50 am41 °FFog.1 mph87%30.01 "Hg2 mi
10:50 pm
Wed, Feb 22
43 °FFog.No wind81%30.01 "Hg2 mi
9:50 pm41 °FPassing clouds.3 mph87%30.01 "Hg4 mi
Weather by CustomWeather, © 2017

See weather overviewHow to use our weather pages